Niagara Falls, NY

9:42 AM EST on January 16, 2018 (GMT -0500)
Niagara Falls International

Weather History for KIAG - June, 2014

Change the Weather History Date:

Thursday, June 26, 2014

  Actual Average Record
Temperature  
Mean Temperature 73 °F -  
Max Temperature 80 °F 78 °F 91 °F (2005)
Min Temperature 66 °F 58 °F 48 °F (2004)
Cooling Degree Days 8    
Growing Degree Days 23 (Base 50)    
Moisture  
Dew Point 61 °F    
Average Humidity 77    
Maximum Humidity 96    
Minimum Humidity 36    
Precipitation  
Precipitation 0.00 in - - ()
Sea Level Pressure  
Sea Level Pressure 29.98 in    
Wind  
Wind Speed 5 mph (North)    
Max Wind Speed 9 mph    
Max Gust Speed -    
Visibility 8 miles    
Events      
Averages and records for this station are not official NWS values.
T = Trace of Precipitation, MM = Missing Value Source: NWS Daily Summary

Daily Weather History Graph

Daily Weather History Graph

Search for Another Location

Airport or City:

Trip Planner

Search our weather history database for the weather conditions in past years. The results will help you decide how hot, cold, wet, or windy it might be!

Date:

Astronomy

Jun. 26, 2014 Rise Set
Actual Time 5:37 AM EDT 8:59 PM EDT
Civil Twilight 5:02 AM EDT 9:34 PM EDT
Nautical Twilight 4:16 AM EDT 10:20 PM EDT
Astronomical Twilight 3:18 AM EDT 11:18 PM EDT
Moon 5:18 AM EDT (6/26) 8:16 PM EDT (6/26)
Length of Visible Light 16h 32m
Length of Day
15h 21m
Waning Crescent, 0% of the Moon is Illuminated
Jun 26
Waning Crescent
Jun 27
New
Jul 5
First Quarter
Jul 12
Full
Jul 18
Last Quarter

Hourly Weather History & Observations

Time (EDT) Temp. Heat Index Dew Point Humidity Pressure Visibility Wind Dir Wind Speed Gust Speed Precip Events Conditions
12:32 AM 66.9 °F - 64.9 °F 93% 29.94 in 10.0 mi NE 4.6 mph - 0.00 in   Overcast
12:39 AM 66.9 °F - 64.9 °F 93% 29.94 in 10.0 mi NE 3.5 mph - 0.00 in   Overcast
12:48 AM 66.2 °F - 64.4 °F 94% 29.94 in 9.0 mi NNE 3.5 mph - 0.00 in   Overcast
1:44 AM 66.0 °F - 64.9 °F 96% 29.95 in 7.0 mi NNW 5.8 mph - N/A   Overcast
1:53 AM 66.0 °F - 64.9 °F 96% 29.94 in 6.0 mi NNW 4.6 mph - N/A   Overcast
2:20 AM 66.0 °F - 64.0 °F 93% 29.95 in 7.0 mi NNW 4.6 mph - N/A   Overcast
2:51 AM 66.2 °F - 64.4 °F 94% 29.96 in 8.0 mi NNW 5.8 mph - N/A   Overcast
2:53 AM 66.2 °F - 64.4 °F 94% 29.96 in 9.0 mi NNW 4.6 mph - N/A   Overcast
3:18 AM 66.0 °F - 64.0 °F 93% 29.95 in 8.0 mi North 3.5 mph - N/A   Overcast
3:53 AM 66.0 °F - 64.0 °F 93% 29.95 in 8.0 mi NNW 4.6 mph - N/A   Overcast
4:28 AM 66.0 °F - 64.0 °F 93% 29.96 in 8.0 mi NNW 4.6 mph - N/A   Overcast
4:41 AM 66.0 °F - 64.0 °F 93% 29.96 in 8.0 mi NNW 4.6 mph - N/A   Overcast
4:53 AM 66.0 °F - 64.0 °F 93% 29.96 in 8.0 mi NW 5.8 mph - N/A   Overcast
5:02 AM 66.0 °F - 64.0 °F 93% 29.96 in 7.0 mi NW 5.8 mph - N/A   Overcast
5:48 AM 66.2 °F - 64.4 °F 94% 29.98 in 6.0 mi NW 8.1 mph - N/A   Overcast
5:53 AM 66.0 °F - 64.0 °F 93% 29.97 in 6.0 mi NW 9.2 mph - N/A   Overcast
6:53 AM 66.0 °F - 64.0 °F 93% 29.98 in 8.0 mi NW 3.5 mph - N/A   Overcast
7:03 AM 66.9 °F - 64.0 °F 90% 29.98 in 7.0 mi West 3.5 mph - N/A   Mostly Cloudy
7:49 AM 66.2 °F - 64.4 °F 94% 30.00 in 7.0 mi NW 6.9 mph - N/A   Mostly Cloudy
7:53 AM 66.9 °F - 64.0 °F 90% 29.99 in 7.0 mi NW 6.9 mph - N/A   Mostly Cloudy
8:48 AM 68.0 °F - 64.4 °F 88% 30.01 in 7.0 mi NW 8.1 mph - N/A   Mostly Cloudy
8:53 AM 68.0 °F - 64.0 °F 87% 30.00 in 7.0 mi NNW 8.1 mph - N/A   Mostly Cloudy
9:10 AM 69.1 °F - 64.0 °F 84% 30.01 in 7.0 mi North 8.1 mph - N/A   Mostly Cloudy
9:21 AM 69.1 °F - 64.0 °F 84% 30.01 in 7.0 mi NNW 6.9 mph - N/A   Mostly Cloudy
9:42 AM 70.0 °F - 64.0 °F 81% 30.01 in 7.0 mi North 6.9 mph - N/A   Mostly Cloudy
9:53 AM 70.0 °F - 64.0 °F 81% 30.00 in 10.0 mi Variable 3.5 mph - N/A   Mostly Cloudy
10:53 AM 73.9 °F - 63.0 °F 68% 29.99 in 10.0 mi North 5.8 mph - N/A   Scattered Clouds
11:53 AM 77.0 °F - 61.0 °F 58% 30.00 in 10.0 mi NE 8.1 mph - N/A   Scattered Clouds
12:53 PM 78.1 °F - 61.0 °F 56% 29.99 in 10.0 mi NE 6.9 mph - N/A   Scattered Clouds
1:53 PM 78.1 °F - 57.0 °F 48% 29.99 in 10.0 mi North 9.2 mph - N/A   Partly Cloudy
2:53 PM 79.0 °F - 53.1 °F 40% 29.99 in 10.0 mi Variable 6.9 mph - N/A   Partly Cloudy
3:53 PM 79.0 °F - 50.0 °F 36% 29.98 in 10.0 mi North 9.2 mph - N/A   Partly Cloudy
4:53 PM 80.1 °F - 52.0 °F 38% 29.99 in 10.0 mi NNE 9.2 mph - N/A   Partly Cloudy
5:53 PM 80.1 °F 80.0 °F 54.0 °F 40% 29.98 in 10.0 mi NE 6.9 mph - N/A   Partly Cloudy
6:53 PM 79.0 °F - 53.1 °F 40% 29.99 in 10.0 mi NE 5.8 mph - N/A   Partly Cloudy
7:53 PM 77.0 °F - 54.0 °F 45% 30.00 in 10.0 mi ENE 4.6 mph - N/A   Partly Cloudy
8:53 PM 75.9 °F - 53.1 °F 45% 30.00 in 10.0 mi Calm Calm - N/A   Partly Cloudy
9:53 PM 72.0 °F - 55.0 °F 55% 30.02 in 10.0 mi Calm Calm - N/A   Partly Cloudy
10:53 PM 69.1 °F - 59.0 °F 70% 30.03 in 10.0 mi Calm Calm - N/A   Partly Cloudy
11:53 PM 66.0 °F - 61.0 °F 84% 30.04 in 10.0 mi South 3.5 mph - N/A   Clear